Weather History for KRUT - September, 2011

Change the Weather History Date:

Thursday, September 8, 2011

  Actual Average Record
Temperature  
Mean Temperature 64 °F -  
Max Temperature 72 °F - 89 °F (2002)
Min Temperature 55 °F - 32 °F (1976)
Degree Days  
Heating Degree Days 1    
Month to date heating degree days 11  
Since 1 July heating degree days 27  
Cooling Degree Days 0    
Month to date cooling degree days 27  
Year to date cooling degree days 328  
Growing Degree Days 13 (Base 50)    
Moisture  
Dew Point 58 °F    
Average Humidity 83    
Maximum Humidity 93    
Minimum Humidity 73    
Precipitation  
Precipitation 0.23 in - 0.66 in (2012)
Month to date precipitation 1.79  
Year to date precipitation 25.10  
Sea Level Pressure  
Sea Level Pressure 30.09 in    
Wind  
Wind Speed 5 mph (East)    
Max Wind Speed 13 mph    
Max Gust Speed 16 mph    
Visibility 9 miles    
Events      
T = Trace of Precipitation, MM = Missing Value Source: NWS Daily Summary

Daily Weather History Graph

Daily Weather History Graph

Search for Another Location

Airport or City:

Trip Planner

Search our weather history database for the weather conditions in past years. The results will help you decide how hot, cold, wet, or windy it might be!

Date:

Astronomy

Sep. 08, 2011 Rise Set
Actual Time 6:23 AM EDT 7:15 PM EDT
Civil Twilight 5:53 AM EDT 7:44 PM EDT
Nautical Twilight 5:19 AM EDT 8:18 PM EDT
Astronomical Twilight 4:43 AM EDT 8:54 PM EDT
Moon 5:12 PM EDT 2:32 AM EDT
Length of Visible Light 13h 50m
Length of Day
12h 52m
Waxing Gibbous, 87% of the Moon is Illuminated
Sep 8
Waxing Gibbous
Sep 12
Full
Sep 20
Last Quarter
Sep 27
New
Oct 3
First Quarter

Hourly Weather History & Observations

Time (EDT) Temp. Dew Point Humidity Pressure Visibility Wind Dir Wind Speed Gust Speed Precip Events Conditions
12:15 AM 57.2 °F 53.6 °F 88% 30.12 in 8.0 mi SSE 10.4 mph - 0.01 in   Overcast
12:35 AM 57.2 °F 53.6 °F 88% 30.14 in 9.0 mi SSE 4.6 mph - 0.03 in   Overcast
12:55 AM 57.2 °F 53.6 °F 88% 30.14 in 6.0 mi SSE 8.1 mph - 0.07 in   Overcast
1:15 AM 57.2 °F 53.6 °F 88% 30.15 in 4.0 mi South 4.6 mph - 0.02 in   Overcast
1:35 AM 57.2 °F 53.6 °F 88% 30.15 in 4.0 mi SE 3.5 mph - 0.03 in   Overcast
1:55 AM 55.4 °F 53.6 °F 94% 30.12 in 5.0 mi SE 8.1 mph - 0.08 in   Overcast
2:15 AM 55.4 °F 53.6 °F 94% 30.11 in 9.0 mi SE 12.7 mph 17.3 mph 0.10 in   Overcast
2:35 AM 55.4 °F 53.6 °F 94% 30.10 in 10.0 mi SSE 11.5 mph - 0.13 in   Overcast
2:55 AM 57.2 °F 53.6 °F 88% 30.11 in 10.0 mi SSE 10.4 mph 16.1 mph 0.13 in   Overcast
3:15 AM 57.2 °F 53.6 °F 88% 30.10 in 10.0 mi SE 3.5 mph - N/A   Overcast
3:35 AM 57.2 °F 53.6 °F 88% 30.10 in 10.0 mi ESE 5.8 mph - 0.01 in   Overcast
3:55 AM 57.2 °F 53.6 °F 88% 30.11 in 10.0 mi East 6.9 mph - 0.02 in   Overcast
4:35 AM 57.2 °F 53.6 °F 88% 30.11 in 10.0 mi East 5.8 mph - N/A   Overcast
4:55 AM 57.2 °F 53.6 °F 88% 30.12 in 10.0 mi Calm Calm - N/A   Overcast
5:15 AM 57.2 °F 53.6 °F 88% 30.12 in 10.0 mi SSE 5.8 mph - N/A   Overcast
5:35 AM 57.2 °F 53.6 °F 88% 30.12 in 10.0 mi South 6.9 mph - N/A   Overcast
5:55 AM 57.2 °F 53.6 °F 88% 30.10 in 10.0 mi SSE 8.1 mph - N/A   Overcast
6:15 AM 57.2 °F 53.6 °F 88% 30.09 in 10.0 mi South 5.8 mph - N/A   Partly Cloudy
6:35 AM 57.2 °F 53.6 °F 88% 30.10 in 10.0 mi SE 4.6 mph - N/A   Mostly Cloudy
6:55 AM 57.2 °F 53.6 °F 88% 30.12 in 10.0 mi Calm Calm - N/A   Overcast
7:35 AM 57.2 °F 55.4 °F 94% 30.13 in 10.0 mi Calm Calm - N/A   Overcast
7:55 AM 57.2 °F 55.4 °F 94% 30.15 in 9.0 mi North 3.5 mph - N/A   Overcast
8:15 AM 57.2 °F 55.4 °F 94% 30.14 in 5.0 mi SSE 9.2 mph - N/A   Overcast
8:35 AM 57.2 °F 55.4 °F 94% 30.12 in 10.0 mi SSE 10.4 mph - N/A   Mostly Cloudy
8:55 AM 57.2 °F 55.4 °F 94% 30.10 in 10.0 mi SSE 12.7 mph - N/A   Scattered Clouds
9:15 AM 60.8 °F 55.4 °F 82% 30.11 in 10.0 mi ENE 6.9 mph - N/A   Scattered Clouds
9:35 AM 60.8 °F 57.2 °F 88% 30.12 in 10.0 mi Calm Calm - N/A   Scattered Clouds
9:55 AM 62.6 °F 57.2 °F 82% 30.10 in 10.0 mi SE 9.2 mph - N/A   Partly Cloudy
10:35 AM 62.6 °F 57.2 °F 82% 30.09 in 10.0 mi NW 3.5 mph - N/A   Mostly Cloudy
10:55 AM 62.6 °F 59.0 °F 88% 30.09 in 10.0 mi NNW 5.8 mph - N/A   Overcast
11:35 AM 62.6 °F 59.0 °F 88% 30.09 in 10.0 mi NNE 6.9 mph - N/A   Overcast
11:55 AM 62.6 °F 59.0 °F 88% 30.08 in 10.0 mi NNW 8.1 mph - N/A   Overcast
12:15 PM 62.6 °F 59.0 °F 88% 30.09 in 10.0 mi North 6.9 mph - N/A   Overcast
1:35 PM 66.2 °F 60.8 °F 83% 30.08 in 10.0 mi Calm Calm - N/A   Scattered Clouds
1:55 PM 66.2 °F 62.6 °F 88% 30.07 in 10.0 mi NW 5.8 mph - N/A   Mostly Cloudy
2:15 PM 68.0 °F 62.6 °F 83% 30.07 in 10.0 mi NNW 4.6 mph - N/A   Scattered Clouds
2:35 PM 68.0 °F 60.8 °F 78% 30.06 in 10.0 mi NNW 4.6 mph - N/A   Mostly Cloudy
2:55 PM 69.8 °F 62.6 °F 78% 30.06 in 10.0 mi Calm Calm - N/A   Overcast
3:15 PM 69.8 °F 62.6 °F 78% 30.06 in 10.0 mi South 5.8 mph - N/A   Overcast
3:35 PM 69.8 °F 62.6 °F 78% 30.05 in 10.0 mi Calm Calm - N/A   Overcast
3:55 PM 71.6 °F 62.6 °F 73% 30.04 in 10.0 mi East 3.5 mph - N/A   Overcast
4:15 PM 71.6 °F 62.6 °F 73% 30.04 in 10.0 mi Calm Calm - N/A   Mostly Cloudy
4:35 PM 69.8 °F 62.6 °F 78% 30.03 in 10.0 mi North 8.1 mph - N/A   Overcast
4:55 PM 69.8 °F 62.6 °F 78% 30.03 in 10.0 mi NNW 5.8 mph - N/A   Overcast
5:15 PM 68.0 °F 62.6 °F 83% 30.02 in 10.0 mi North 6.9 mph - N/A   Overcast
5:35 PM 68.0 °F 62.6 °F 83% 30.02 in 10.0 mi North 6.9 mph - N/A   Mostly Cloudy
5:55 PM 66.2 °F 62.6 °F 88% 30.01 in 10.0 mi NNW 3.5 mph - N/A   Partly Cloudy
6:15 PM 66.2 °F 62.6 °F 88% 30.02 in 10.0 mi Calm Calm - N/A   Clear
6:35 PM 66.2 °F 62.6 °F 88% 30.01 in 10.0 mi Calm Calm - N/A   Clear
6:55 PM 66.2 °F 62.6 °F 88% 30.01 in 10.0 mi NNW 4.6 mph - N/A   Clear
7:15 PM 64.4 °F 62.6 °F 94% 30.02 in 10.0 mi North 4.6 mph - N/A   Mostly Cloudy
7:35 PM 64.4 °F 60.8 °F 88% 30.01 in 10.0 mi North 8.1 mph - N/A   Overcast
7:55 PM 64.4 °F 60.8 °F 88% 30.01 in 10.0 mi NNW 3.5 mph - N/A   Overcast
8:15 PM 64.4 °F 60.8 °F 88% 30.01 in 10.0 mi Calm Calm - N/A   Overcast
8:35 PM 64.4 °F 60.8 °F 88% 30.01 in 10.0 mi Calm Calm - N/A   Overcast
8:55 PM 64.4 °F 60.8 °F 88% 30.01 in 10.0 mi Calm Calm - N/A   Overcast
9:15 PM 64.4 °F 60.8 °F 88% 30.01 in 10.0 mi Calm Calm - N/A   Overcast
9:35 PM 64.4 °F 60.8 °F 88% 30.01 in 10.0 mi Calm Calm - N/A   Overcast
9:55 PM 64.4 °F 60.8 °F 88% 30.01 in 10.0 mi Calm Calm - N/A   Overcast
10:15 PM 64.4 °F 60.8 °F 88% 30.02 in 10.0 mi Calm Calm - N/A   Overcast
10:35 PM 64.4 °F 60.8 °F 88% 30.02 in 10.0 mi Calm Calm - N/A   Overcast
10:55 PM 64.4 °F 60.8 °F 88% 30.01 in 10.0 mi Calm Calm - N/A   Overcast
11:15 PM 64.4 °F 60.8 °F 88% 30.00 in 10.0 mi Calm Calm - N/A   Overcast
11:35 PM 64.4 °F 60.8 °F 88% 29.99 in 10.0 mi North 3.5 mph - N/A   Overcast
11:55 PM 64.4 °F 60.8 °F 88% 29.99 in 9.0 mi Calm Calm - N/A   Overcast